Location: 22
(39.7117°N, 89.5929°W)
Time: 19:04:18
(UTC-05:00)

Vanguard 3 - Pass Details

Date: 03 February 2023
Orbit: 508 x 3249 km, 33.4° (Epoch: 30 March)

Event Time Altitude Azimuth Distance (km) Brightness Sun altitude
Rises 17:16:07 0° 214° (SW) 3,633 11.5 -0.1°
Reaches altitude 10° 17:18:35 10° 203° (SSW) 2,971 10.8 -0.5°
Maximum altitude 17:25:07 32° 143° (SE) 2,436 9.5 -1.7°
Drops below altitude 10° 17:35:34 10° 88° (E) 4,837 10.5 -3.6°
Enters shadow 17:38:54 - 83° (E) 5,765 10.8 -4.2°
Sets 17:40:52 0° 80° (E) 6,302 - -4.6°
